{"data":{"norad_id":62968,"intl_designator":"2025-029W","name":"STARLINK-32863","alt_names":[],"object_type":"PAYLOAD","status":"ACTIVE","operator":null,"country":"US","launch_date":"2025-02-11","launch_site_code":"AFWTR","launch_vehicle":null,"mission":null,"orbit_class":"UNKNOWN","rcs_meters":null,"size_class":null,"mass_kg":null,"dimensions":null,"purposes":["comms"],"wikipedia_slug":null,"has_3d_model":false,"image_url":null,"decayed_at":null,"tle_current":{"epoch":"2026-05-24T17:44:51.201600Z","epoch_age_seconds":97559,"freshness":"FRESH","line1":"1 62968U 25029W   26144.73948150  .00012636  00000+0  41824-3 0  9992","line2":"2 62968  53.1575 239.0376 0001090  80.1980 279.9145 15.31700065 72100","mean_motion":15.31700065,"eccentricity":0.000109,"inclination_deg":53.1575,"raan_deg":239.0376,"arg_perigee_deg":80.198,"mean_anomaly_deg":279.9145,"bstar":0.00041824,"rev_number":7210,"period_min":94.013183971498,"perigee_km":469.99327389268,"apogee_km":471.4863290354,"semimajor_km":6848.876801464,"source":"CELESTRAK","updated_at":"2026-05-25T13:38:19.828854Z"}}}